Location: Bernay
(48.6766°N, 2.9386°E)
Time: 08:21:12
(UTC+00:00)

Cosmos 2218 Rocket - Pass Details

Date: 12 January 2026
Orbit: 955 x 1005 km, 82.9° (Epoch: 14 February)

Event Time Altitude Azimuth Distance (km) Brightness Sun altitude
Rises 17:43:02 0° 351° (N) 3,743 7.0 -13.9°
Reaches altitude 10° 17:45:36 10° 353° (N) 2,791 6.3 -14.3°
Maximum altitude 17:52:02 76° 79° (E) 1,038 4.0 -15.3°
Drops below altitude 10° 17:58:24 10° 166° (SSE) 2,767 6.4 -16.3°
Sets 18:00:55 0° 168° (SSE) 3,708 7.1 -16.7°
